| time (UTC) | temp F | wind direction | speed knots | gust knots | rain 1hr in | rain 24hr in | rain mn in | humidity % | barometer mb |
| 20260831182020 | 95 | 202 | 2.6 | 8.7 | 0.00 | 0.00 | 0.00 | 45 | 1017.4 |
| 20260831181026 | 94 | 187 | 2.6 | 7.8 | 0.00 | 0.00 | 0.00 | 43 | 1017.5 |
| 20260831180015 | 94 | 227 | 1.7 | 6.1 | 0.00 | 0.00 | 0.00 | 45 | 1017.5 |
| 20260831175020 | 94 | 220 | 3.5 | 7.8 | 0.00 | 0.00 | 0.00 | 45 | 1017.7 |
| 20260831174021 | 94 | 218 | 1.7 | 7.8 | 0.00 | 0.00 | 0.00 | 49 | 1017.8 |
| 20260831173101 | 93 | 230 | 1.7 | 7.0 | 0.00 | 0.00 | 0.00 | 50 | 1017.8 |
| 20260831172021 | 93 | 236 | 2.6 | 7.0 | 0.00 | 0.00 | 0.00 | 51 | 1017.9 |
| 20260831171021 | 93 | 221 | 1.7 | 7.8 | 0.00 | 0.00 | 0.00 | 52 | 1018.0 |
| 20260831170020 | 92 | 248 | 1.7 | 7.0 | 0.00 | 0.00 | 0.00 | 53 | 1018.1 |
| 20260831165015 | 92 | 212 | 2.6 | 7.0 | 0.00 | 0.00 | 0.00 | 51 | 1018.2 |
| 20260831164020 | 92 | 215 | 2.6 | 5.2 | 0.00 | 0.00 | 0.00 | 55 | 1018.2 |
| 20260831163021 | 91 | 186 | 1.7 | 8.7 | 0.00 | 0.00 | 0.00 | 56 | 1018.4 |
| 20260831162021 | 90 | 216 | 1.7 | 5.2 | 0.00 | 0.00 | 0.00 | 59 | 1018.4 |
| 20260831161020 | 89 | 207 | 3.5 | 7.8 | 0.00 | 0.00 | 0.00 | 57 | 1018.3 |
| 20260831160021 | 89 | 185 | 3.5 | 8.7 | 0.00 | 0.00 | 0.00 | 59 | 1018.3 |
| 20260831155015 | 88 | 183 | 2.6 | 7.8 | 0.00 | 0.00 | 0.00 | 61 | 1018.3 |
| 20260831154015 | 88 | 201 | 1.7 | 7.8 | 0.00 | 0.00 | 0.00 | 63 | 1018.5 |
| 20260831153021 | 88 | 213 | 2.6 | 7.0 | 0.00 | 0.00 | 0.00 | 61 | 1018.5 |
| 20260831152020 | 88 | 216 | 2.6 | 6.1 | 0.00 | 0.00 | 0.00 | 64 | 1018.4 |
| 20260831151021 | 87 | 222 | 1.7 | 8.7 | 0.00 | 0.00 | 0.00 | 65 | 1018.3 |
| 20260831150021 | 86 | 236 | 1.7 | 7.8 | 0.00 | 0.00 | 0.00 | 67 | 1018.3 |
| 20260831145021 | 85 | 196 | 1.7 | 4.3 | 0.00 | 0.00 | 0.00 | 67 | 1018.3 |
| 20260831144015 | 85 | 206 | 1.7 | 5.2 | 0.00 | 0.00 | 0.00 | 68 | 1018.4 |
| 20260831143020 | 84 | 216 | 1.7 | 7.0 | 0.00 | 0.00 | 0.00 | 69 | 1018.2 |
| 20260831142020 | 83 | 221 | 1.7 | 6.1 | 0.00 | 0.00 | 0.00 | 70 | 1018.3 |
| 20260831141020 | 82 | 210 | 1.7 | 5.2 | 0.00 | 0.00 | 0.00 | 72 | 1018.3 |
| 20260831140020 | 81 | 211 | 1.7 | 4.3 | 0.00 | 0.00 | 0.00 | 74 | 1018.2 |
| 20260831135021 | 81 | 211 | 1.7 | 5.2 | 0.00 | 0.00 | 0.00 | 75 | 1018.1 |
| 20260831134015 | 80 | 197 | 1.7 | 7.0 | 0.00 | 0.00 | 0.00 | 77 | 1018.0 |
| 20260831133035 | 79 | 196 | 0.0 | 6.1 | 0.00 | 0.00 | 0.00 | 79 | 1017.9 |
| 20260831132021 | 78 | 181 | 0.9 | 5.2 | 0.00 | 0.00 | 0.00 | 80 | 1017.9 |
| 20260831131040 | 78 | 184 | 0.0 | 5.2 | 0.00 | 0.00 | 0.00 | 82 | 1017.8 |
| 20260831130021 | 77 | 183 | 0.0 | 3.5 | 0.00 | 0.00 | 0.00 | 83 | 1017.5 |
| 20260831125020 | 76 | 184 | 0.0 | 4.3 | 0.00 | 0.00 | 0.00 | 84 | 1017.5 |
| 20260831124020 | 76 | 180 | 0.0 | 3.5 | 0.00 | 0.00 | 0.00 | 84 | 1017.4 |
| 20260831123015 | 75 | 183 | 0.0 | 3.5 | 0.00 | 0.00 | 0.00 | 86 | 1017.5 |
| 20260831122020 | 75 | 190 | 0.0 | 1.7 | 0.00 | 0.00 | 0.00 | 86 | 1017.4 |
| 20260831121021 | 74 | 0.0 | 0.9 | 0.00 | 0.00 | 0.00 | 87 | 1017.3 | |
| 20260831120020 | 74 | 190 | 0.0 | 1.7 | 0.00 | 0.00 | 0.00 | 88 | 1017.2 |
| 20260831115021 | 74 | 190 | 0.0 | 1.7 | 0.00 | 0.00 | 0.00 | 88 | 1017.1 |
| 20260831114020 | 73 | 0.0 | 0.0 | 0.00 | 0.00 | 0.00 | 88 | 1017.1 | |
| 20260831113020 | 73 | 0.0 | 0.0 | 0.00 | 0.00 | 0.00 | 88 | 1017.1 | |
| 20260831112015 | 73 | 0.0 | 0.0 | 0.00 | 0.00 | 0.00 | 89 | 1017.1 | |
| 20260831111020 | 73 | 0.0 | 0.0 | 0.00 | 0.00 | 0.00 | 88 | 1017.0 | |
| 20260831110020 | 73 | 0.0 | 0.9 | 0.00 | 0.00 | 0.00 | 88 | 1017.0 | |
| 20260831105020 | 73 | 0.0 | 1.7 | 0.00 | 0.00 | 0.00 | 88 | 1016.9 | |
| 20260831104020 | 73 | 0.0 | 0.0 | 0.00 | 0.00 | 0.00 | 88 | 1016.9 | |
| 20260831103020 | 73 | 0.0 | 0.9 | 0.00 | 0.00 | 0.00 | 88 | 1016.9 | |
| 20260831102015 | 73 | 0.0 | 0.0 | 0.00 | 0.00 | 0.00 | 88 | 1016.9 | |
| 20260831101015 | 73 | 0.0 | 0.0 | 0.00 | 0.00 | 0.00 | 88 | 1016.9 | |
| 20260831100020 | 73 | 0.0 | 1.7 | 0.00 | 0.00 | 0.00 | 88 | 1016.9 | |
| 20260831095020 | 73 | 0.0 | 0.9 | 0.00 | 0.00 | 0.00 | 88 | 1016.8 | |
| 20260831094021 | 73 | 0.0 | 1.7 | 0.00 | 0.00 | 0.00 | 88 | 1016.8 | |
| 20260831093038 | 73 | 190 | 0.0 | 1.7 | 0.00 | 0.00 | 0.00 | 89 | 1016.7 |
| 20260831092021 | 72 | 177 | 0.0 | 1.7 | 0.00 | 0.00 | 0.00 | 89 | 1016.6 |
| 20260831091015 | 71 | 0.0 | 0.0 | 0.00 | 0.00 | 0.00 | 91 | 1016.7 | |
| 20260831090020 | 69 | 0.0 | 0.0 | 0.00 | 0.00 | 0.00 | 92 | 1016.6 | |
| 20260831085020 | 68 | 0.0 | 0.0 | 0.00 | 0.00 | 0.00 | 92 | 1016.6 | |
| 20260831084020 | 68 | 0.0 | 0.0 | 0.00 | 0.00 | 0.00 | 92 | 1016.6 | |
| 20260831083020 | 67 | 0.0 | 0.0 | 0.00 | 0.00 | 0.00 | 92 | 1016.4 | |
| 20260831082020 | 67 | 0.0 | 0.0 | 0.00 | 0.00 | 0.00 | 91 | 1016.3 | |
| 20260831081015 | 67 | 0.0 | 0.0 | 0.00 | 0.00 | 0.00 | 91 | 1016.1 | |
| 20260831080015 | 67 | 0.0 | 0.0 | 0.00 | 0.00 | 0.00 | 91 | 1016.2 | |
| 20260831075020 | 67 | 0.0 | 0.0 | 0.00 | 0.00 | 0.00 | 91 | 1016.2 | |
| 20260831074040 | 67 | 0.0 | 0.0 | 0.00 | 0.00 | 0.00 | 90 | 1016.1 | |
| 20260831073020 | 69 | 0.0 | 0.0 | 0.00 | 0.00 | 0.00 | 91 | 1016.1 | |
| 20260831072020 | 68 | 0.0 | 0.0 | 0.00 | 0.00 | 0.00 | 91 | 1016.2 | |
| 20260831071020 | 68 | 0.0 | 0.0 | 0.00 | 0.00 | 0.00 | 92 | 1016.2 | |
| 20260831070015 | 67 | 0.0 | 0.0 | 0.00 | 0.00 | 0.00 | 91 | 1016.3 | |
| 20260831065021 | 68 | 0.0 | 0.0 | 0.00 | 0.00 | 0.00 | 89 | 1016.3 | |
| 20260831064020 | 69 | 0.0 | 0.0 | 0.00 | 0.00 | 0.00 | 90 | 1016.3 | |
| 20260831063020 | 69 | 0.0 | 0.0 | 0.00 | 0.00 | 0.00 | 89 | 1016.3 | |
| 20260831062040 | 69 | 0.0 | 0.0 | 0.00 | 0.00 | 0.00 | 90 | 1016.4 | |
| 20260831061040 | 69 | 0.0 | 0.0 | 0.00 | 0.00 | 0.00 | 90 | 1016.3 | |
| 20260831060020 | 68 | 0.0 | 0.0 | 0.00 | 0.00 | 0.00 | 91 | 1016.4 | |
| 20260831055015 | 69 | 0.0 | 0.0 | 0.00 | 0.00 | 0.00 | 89 | 1016.5 | |
| 20260831054020 | 69 | 0.0 | 0.0 | 0.00 | 0.00 | 0.00 | 89 | 1016.5 | |
| 20260831053100 | 69 | 0.0 | 0.0 | 0.00 | 0.00 | 0.00 | 89 | 1016.5 | |
| 20260831052021 | 68 | 0.0 | 0.0 | 0.00 | 0.00 | 0.00 | 89 | 1016.5 | |
| 20260831051040 | 69 | 0.0 | 0.0 | 0.00 | 0.00 | 0.00 | 89 | 1016.4 | |
| 20260831050017 | 69 | 0.0 | 0.0 | 0.00 | 0.00 | 0.00 | 90 | 1016.4 | |
| 20260831045021 | 69 | 0.0 | 0.0 | 0.00 | 0.00 | 0.00 | 89 | 1016.4 | |
| 20260831044021 | 68 | 0.0 | 0.0 | 0.00 | 0.00 | 0.00 | 88 | 1016.5 | |
| 20260831043016 | 68 | 0.0 | 0.0 | 0.00 | 0.00 | 0.00 | 88 | 1016.3 | |
| 20260831042016 | 68 | 0.0 | 0.0 | 0.00 | 0.00 | 0.00 | 89 | 1016.3 | |
| 20260831041021 | 68 | 0.0 | 0.0 | 0.00 | 0.00 | 0.00 | 87 | 1016.3 | |
| 20260831040021 | 69 | 0.0 | 0.0 | 0.00 | 0.00 | 0.00 | 87 | 1016.3 | |
| 20260831035021 | 69 | 0.0 | 0.0 | 0.00 | 0.00 | 0.00 | 87 | 1016.3 | |
| 20260831034039 | 69 | 0.0 | 0.0 | 0.00 | 0.00 | 0.00 | 87 | 1016.2 | |
| 20260831033041 | 69 | 0.0 | 0.0 | 0.00 | 0.00 | 0.00 | 86 | 1016.2 | |
| 20260831032016 | 69 | 0.0 | 0.0 | 0.00 | 0.00 | 0.00 | 87 | 1016.2 | |
| 20260831031021 | 69 | 0.0 | 0.0 | 0.00 | 0.00 | 0.00 | 86 | 1016.3 | |
| 20260831030021 | 70 | 0.0 | 0.0 | 0.00 | 0.00 | 0.00 | 85 | 1016.3 | |
| 20260831025021 | 70 | 0.0 | 0.0 | 0.00 | 0.00 | 0.00 | 85 | 1016.2 | |
| 20260831024041 | 70 | 0.0 | 0.0 | 0.00 | 0.00 | 0.00 | 83 | 1016.3 | |
| 20260831023021 | 71 | 0.0 | 0.0 | 0.00 | 0.00 | 0.00 | 83 | 1016.2 | |
| 20260831022016 | 71 | 0.0 | 0.0 | 0.00 | 0.00 | 0.00 | 81 | 1016.2 | |
| 20260831021016 | 72 | 0.0 | 0.0 | 0.00 | 0.00 | 0.00 | 80 | 1015.9 | |
| 20260831020021 | 73 | 0.0 | 0.0 | 0.00 | 0.00 | 0.00 | 79 | 1015.8 | |
| 20260831015021 | 73 | 0.0 | 0.0 | 0.00 | 0.00 | 0.00 | 78 | 1015.7 | |
| 20260831014041 | 74 | 0.0 | 0.0 | 0.00 | 0.00 | 0.00 | 74 | 1015.6 | |
| 20260831013021 | 75 | 0.0 | 0.0 | 0.00 | 0.00 | 0.00 | 74 | 1015.5 | |
| 20260831012021 | 76 | 0.0 | 0.0 | 0.00 | 0.00 | 0.00 | 73 | 1015.4 | |
| 20260831011016 | 76 | 0.0 | 0.0 | 0.00 | 0.00 | 0.00 | 74 | 1015.3 | |
| 20260831010021 | 77 | 0.0 | 0.0 | 0.00 | 0.00 | 0.00 | 73 | 1015.3 | |
| 20260831005041 | 78 | 0.0 | 0.0 | 0.00 | 0.00 | 0.00 | 70 | 1015.2 | |
| 20260831004031 | 78 | 0.0 | 0.0 | 0.00 | 0.00 | 0.00 | 69 | 1015.3 | |
| 20260831003021 | 79 | 0.0 | 0.0 | 0.00 | 0.00 | 0.00 | 66 | 1015.3 | |
| 20260831002021 | 82 | 0.0 | 0.0 | 0.00 | 0.00 | 0.00 | 60 | 1015.3 | |
| 20260831001021 | 83 | 0.0 | 0.0 | 0.00 | 0.00 | 0.00 | 58 | 1015.3 | |
| 20260831000016 | 84 | 0.0 | 1.7 | 0.00 | 0.00 | 0.00 | 54 | 1015.3 | |
| 20260830235041 | 86 | 0.0 | 0.9 | 0.00 | 0.00 | 0.00 | 53 | 1015.5 | |
| 20260830234021 | 87 | 181 | 0.0 | 2.6 | 0.00 | 0.00 | 0.00 | 49 | 1015.5 |
| 20260830233021 | 87 | 194 | 0.0 | 2.6 | 0.00 | 0.00 | 0.00 | 48 | 1015.5 |
| 20260830232021 | 88 | 170 | 0.0 | 4.3 | 0.00 | 0.00 | 0.00 | 47 | 1015.6 |
| 20260830231021 | 89 | 174 | 0.9 | 5.2 | 0.00 | 0.00 | 0.00 | 45 | 1015.6 |
| 20260830230015 | 89 | 195 | 1.7 | 5.2 | 0.00 | 0.00 | 0.00 | 45 | 1015.7 |
| 20260830225016 | 90 | 189 | 1.7 | 6.1 | 0.00 | 0.00 | 0.00 | 44 | 1015.7 |
| 20260830224021 | 90 | 192 | 1.7 | 7.0 | 0.00 | 0.00 | 0.00 | 43 | 1015.8 |
| 20260830223021 | 90 | 192 | 0.9 | 9.6 | 0.00 | 0.00 | 0.00 | 42 | 1015.6 |
| 20260830222021 | 91 | 184 | 0.9 | 5.2 | 0.00 | 0.00 | 0.00 | 45 | 1015.5 |
| 20260830221021 | 91 | 174 | 0.9 | 7.0 | 0.00 | 0.00 | 0.00 | 42 | 1015.5 |
| 20260830220021 | 91 | 194 | 1.7 | 6.1 | 0.00 | 0.00 | 0.00 | 42 | 1015.6 |
| 20260830215015 | 91 | 193 | 0.0 | 1.7 | 0.00 | 0.00 | 0.00 | 43 | 1015.6 |
| 20260830214021 | 92 | 159 | 0.0 | 5.2 | 0.00 | 0.00 | 0.00 | 44 | 1015.6 |
| 20260830213041 | 92 | 180 | 0.9 | 8.7 | 0.00 | 0.00 | 0.00 | 42 | 1015.7 |
| 20260830212021 | 92 | 188 | 0.0 | 4.3 | 0.00 | 0.00 | 0.00 | 44 | 1015.8 |
| 20260830211021 | 91 | 179 | 0.9 | 7.0 | 0.00 | 0.00 | 0.00 | 44 | 1015.9 |
| 20260830210021 | 91 | 175 | 0.9 | 5.2 | 0.00 | 0.00 | 0.00 | 44 | 1015.9 |
| 20260830205016 | 91 | 166 | 0.0 | 2.6 | 0.00 | 0.00 | 0.00 | 45 | 1016.1 |
| 20260830204036 | 91 | 187 | 0.0 | 6.1 | 0.00 | 0.00 | 0.00 | 48 | 1016.1 |
| 20260830203041 | 92 | 203 | 0.9 | 7.0 | 0.00 | 0.00 | 0.00 | 44 | 1016.3 |
| 20260830202021 | 92 | 185 | 1.7 | 7.0 | 0.00 | 0.00 | 0.00 | 45 | 1016.3 |
| 20260830201021 | 91 | 183 | 0.9 | 5.2 | 0.00 | 0.00 | 0.00 | 44 | 1016.4 |
| 20260830200041 | 91 | 161 | 0.0 | 1.7 | 0.00 | 0.00 | 0.00 | 44 | 1016.4 |
| 20260830195021 | 92 | 157 | 0.0 | 5.2 | 0.00 | 0.00 | 0.00 | 39 | 1016.6 |
| 20260830194036 | 92 | 173 | 0.9 | 5.2 | 0.00 | 0.00 | 0.00 | 40 | 1016.7 |
| 20260830193021 | 92 | 201 | 1.7 | 6.1 | 0.00 | 0.00 | 0.00 | 41 | 1016.8 |
| 20260830192021 | 92 | 203 | 1.7 | 6.1 | 0.00 | 0.00 | 0.00 | 41 | 1017.0 |
| 20260830191020 | 92 | 196 | 1.7 | 7.0 | 0.00 | 0.00 | 0.00 | 41 | 1017.0 |
| 20260830190021 | 91 | 184 | 0.9 | 5.2 | 0.00 | 0.00 | 0.00 | 44 | 1017.0 |
| 20260830185021 | 92 | 229 | 1.7 | 5.2 | 0.00 | 0.00 | 0.00 | 45 | 1017.2 |
| 20260830184041 | 91 | 180 | 0.9 | 5.2 | 0.00 | 0.00 | 0.00 | 44 | 1017.2 |
| 20260830183016 | 91 | 185 | 1.7 | 6.1 | 0.00 | 0.00 | 0.00 | 40 | 1017.4 |